When you browse on this site, cookies collect data to enhance your experience and personalize the content and advertising you see.
Visit our Privacy Policy to learn more. By continuing to use the site, you agree to this use of cookies and data.
  • In Czech Republic
  • List of Countries
  • For 7 days
  • Water Temperature
  • Weather Map
  • Weather Widgets
  • user-avatar
    Login

    Hourly Weather Maturín

    Today, 21 February, Friday

    Time Temperature Precipitation Wind Pressure Humidity
    00:00 +23°C° 0 mm 2 mps 756 mmHg 92%
    01:00 +23°C° 0 mm 1 mps 756 mmHg 94%
    02:00 +22°C° 0 mm 1 mps 756 mmHg 95%
    09:00 +27°C° 0 mm 2 mps 757 mmHg 75%
    10:00 +29°C° 0 mm 2 mps 757 mmHg 65%
    11:00 +31°C° 0 mm 3 mps 757 mmHg 56%
    12:00 +33°C° 0 mm 3 mps 756 mmHg 53%
    13:00 +34°C° 0 mm 3 mps 755 mmHg 51%
    14:00 +34°C° 0 mm 3 mps 754 mmHg 49%
    15:00 +34°C° 0 mm 3 mps 754 mmHg 51%
    16:00 +33°C° 0 mm 4 mps 754 mmHg 53%
    17:00 +33°C° 0 mm 4 mps 754 mmHg 55%
    18:00 +30°C° 0 mm 3 mps 754 mmHg 62%
    19:00 +28°C° 0 mm 3 mps 754 mmHg 69%
    20:00 +26°C° 0 mm 3 mps 755 mmHg 76%
    21:00 +25°C° 0 mm 2 mps 755 mmHg 80%
    22:00 +24°C° 0 mm 2 mps 756 mmHg 85%
    23:00 +24°C° 0 mm 2 mps 756 mmHg 89%

    Tomorrow, 22 February, Saturday

    Time Temperature Precipitation Wind Pressure Humidity
    00:00 +23°C° 0 mm 2 mps 756 mmHg 91%
    01:00 +23°C° 0 mm 2 mps 756 mmHg 93%
    02:00 +23°C° 0 mm 2 mps 756 mmHg 94%
    03:00 +23°C° 0 mm 2 mps 756 mmHg 95%
    04:00 +22°C° 0 mm 1 mps 755 mmHg 96%
    05:00 +22°C° 0 mm 1 mps 755 mmHg 97%
    06:00 +23°C° 0 mm 1 mps 756 mmHg 92%
    07:00 +24°C° 0 mm 2 mps 756 mmHg 87%
    08:00 +25°C° 0 mm 2 mps 757 mmHg 83%
    09:00 +27°C° 0 mm 2 mps 757 mmHg 74%
    10:00 +29°C° 0 mm 2 mps 757 mmHg 64%
    11:00 +31°C° 0 mm 2 mps 757 mmHg 55%
    12:00 +32°C° 0 mm 2 mps 756 mmHg 51%
    13:00 +34°C° 0 mm 2 mps 755 mmHg 46%
    14:00 +35°C° 0 mm 2 mps 754 mmHg 41%
    15:00 +35°C° 0 mm 3 mps 754 mmHg 44%
    16:00 +34°C° 0 mm 3 mps 754 mmHg 46%
    17:00 +34°C° 0 mm 3 mps 753 mmHg 49%
    18:00 +31°C° 0 mm 3 mps 754 mmHg 59%
    19:00 +29°C° 0 mm 3 mps 754 mmHg 69%
    20:00 +26°C° 0 mm 3 mps 755 mmHg 79%
    21:00 +26°C° 0 mm 3 mps 755 mmHg 83%
    22:00 +25°C° 0 mm 3 mps 756 mmHg 86%
    23:00 +24°C° 0 mm 2 mps 756 mmHg 90%

    Day after tomorrow, 23 February, Sunday

    Time Temperature Precipitation Wind Pressure Humidity
    00:00 +24°C° 0 mm 2 mps 756 mmHg 92%
    01:00 +24°C° 0 mm 1 mps 756 mmHg 93%
    02:00 +24°C° 0 mm 1 mps 755 mmHg 95%
    03:00 +23°C° 0 mm 1 mps 755 mmHg 96%
    04:00 +23°C° 0 mm 1 mps 755 mmHg 96%
    05:00 +23°C° 0 mm 1 mps 755 mmHg 97%
    06:00 +24°C° 0 mm 1 mps 756 mmHg 93%
    07:00 +25°C° 0 mm 1 mps 756 mmHg 88%
    08:00 +26°C° 0 mm 2 mps 757 mmHg 84%
    09:00 +28°C° 0 mm 2 mps 757 mmHg 74%
    10:00 +30°C° 0 mm 2 mps 757 mmHg 65%
    11:00 +33°C° 0 mm 3 mps 757 mmHg 55%
    12:00 +34°C° 0 mm 2 mps 756 mmHg 54%
    13:00 +34°C° 0 mm 2 mps 755 mmHg 52%
    14:00 +35°C° 0 mm 2 mps 754 mmHg 50%
    15:00 +35°C° 0 mm 3 mps 753 mmHg 52%
    16:00 +34°C° 0 mm 3 mps 753 mmHg 54%
    17:00 +34°C° 0 mm 4 mps 753 mmHg 56%
    18:00 +31°C° 0 mm 3 mps 753 mmHg 64%
    19:00 +29°C° 0 mm 3 mps 754 mmHg 72%
    20:00 +27°C° 0 mm 3 mps 755 mmHg 80%
    21:00 +26°C° 0 mm 3 mps 755 mmHg 84%
    22:00 +26°C° 0 mm 2 mps 755 mmHg 88%
    23:00 +25°C° 0 mm 2 mps 756 mmHg 92%

    24 February, Monday

    Time Temperature Precipitation Wind Pressure Humidity
    00:00 +25°C° 0 mm 2 mps 755 mmHg 94%
    01:00 +24°C° 0 mm 1 mps 755 mmHg 95%
    02:00 +24°C° 0 mm 1 mps 755 mmHg 97%
    03:00 +24°C° 0 mm 1 mps 755 mmHg 97%
    04:00 +24°C° 0 mm 1 mps 755 mmHg 98%
    05:00 +24°C° 0 mm 1 mps 755 mmHg 98%
    06:00 +25°C° 0 mm 1 mps 755 mmHg 94%
    07:00 +26°C° 0 mm 1 mps 756 mmHg 90%
    08:00 +27°C° 0 mm 2 mps 756 mmHg 86%
    09:00 +28°C° 0.1 mm 2 mps 756 mmHg 77%
    10:00 +30°C° 0.1 mm 2 mps 756 mmHg 68%
    11:00 +32°C° 0.1 mm 2 mps 757 mmHg 58%
    12:00 +34°C° 0.1 mm 2 mps 756 mmHg 57%
    13:00 +34°C° 0.1 mm 3 mps 755 mmHg 55%
    14:00 +35°C° 0.1 mm 3 mps 754 mmHg 53%
    15:00 +34°C° 0.1 mm 3 mps 754 mmHg 56%
    16:00 +33°C° 0.1 mm 3 mps 753 mmHg 58%
    17:00 +33°C° 0.1 mm 4 mps 753 mmHg 61%
    18:00 +30°C° 0 mm 3 mps 754 mmHg 68%
    19:00 +28°C° 0 mm 3 mps 754 mmHg 74%
    20:00 +27°C° 0 mm 3 mps 755 mmHg 81%
    21:00 +26°C° 0 mm 2 mps 755 mmHg 84%
    22:00 +25°C° 0 mm 2 mps 756 mmHg 87%
    23:00 +25°C° 0 mm 2 mps 756 mmHg 90%

    25 February, Tuesday

    Time Temperature Precipitation Wind Pressure Humidity
    00:00 +24°C° 0 mm 2 mps 756 mmHg 92%
    01:00 +24°C° 0 mm 1 mps 756 mmHg 94%
    02:00 +24°C° 0 mm 1 mps 755 mmHg 96%
    03:00 +24°C° 0 mm 1 mps 755 mmHg 96%
    04:00 +24°C° 0 mm 1 mps 755 mmHg 95%
    05:00 +24°C° 0 mm 1 mps 755 mmHg 94%
    06:00 +25°C° 0.1 mm 1 mps 756 mmHg 90%
    07:00 +26°C° 0.1 mm 2 mps 756 mmHg 87%
    08:00 +26°C° 0.1 mm 2 mps 757 mmHg 84%
    09:00 +28°C° 0 mm 3 mps 757 mmHg 74%
    10:00 +30°C° 0 mm 3 mps 757 mmHg 64%
    11:00 +33°C° 0 mm 3 mps 757 mmHg 54%
    12:00 +34°C° 0 mm 3 mps 756 mmHg 51%
    13:00 +35°C° 0 mm 3 mps 755 mmHg 48%
    14:00 +36°C° 0 mm 3 mps 754 mmHg 45%
    15:00 +35°C° 0 mm 4 mps 754 mmHg 48%
    16:00 +35°C° 0 mm 4 mps 754 mmHg 50%
    17:00 +34°C° 0 mm 4 mps 753 mmHg 52%
    18:00 +32°C° 0 mm 4 mps 754 mmHg 59%
    19:00 +29°C° 0 mm 3 mps 754 mmHg 66%
    20:00 +27°C° 0 mm 3 mps 754 mmHg 73%
    21:00 +26°C° 0 mm 3 mps 755 mmHg 79%
    22:00 +25°C° 0 mm 2 mps 755 mmHg 85%
    23:00 +24°C° 0 mm 2 mps 756 mmHg 91%

    26 February, Wednesday

    Time Temperature Precipitation Wind Pressure Humidity
    00:00 +24°C° 0 mm 2 mps 756 mmHg 93%
    01:00 +24°C° 0 mm 1 mps 755 mmHg 95%
    02:00 +24°C° 0 mm 1 mps 755 mmHg 97%
    03:00 +23°C° 0.1 mm 1 mps 755 mmHg 97%
    04:00 +23°C° 0.1 mm 1 mps 755 mmHg 97%
    05:00 +23°C° 0.1 mm 1 mps 755 mmHg 98%
    06:00 +24°C° 0 mm 2 mps 756 mmHg 93%
    07:00 +25°C° 0 mm 2 mps 756 mmHg 89%
    08:00 +26°C° 0 mm 2 mps 757 mmHg 85%
    09:00 +28°C° 0 mm 3 mps 757 mmHg 73%
    10:00 +30°C° 0 mm 3 mps 757 mmHg 62%
    11:00 +33°C° 0 mm 3 mps 757 mmHg 51%
    12:00 +34°C° 0 mm 4 mps 757 mmHg 47%
    13:00 +35°C° 0 mm 4 mps 756 mmHg 43%
    14:00 +36°C° 0 mm 4 mps 755 mmHg 39%
    15:00 +35°C° 0 mm 4 mps 755 mmHg 43%
    16:00 +34°C° 0 mm 4 mps 754 mmHg 46%
    17:00 +33°C° 0 mm 5 mps 754 mmHg 49%
    18:00 +30°C° 0 mm 4 mps 754 mmHg 58%
    19:00 +28°C° 0 mm 3 mps 754 mmHg 66%
    20:00 +26°C° 0 mm 3 mps 755 mmHg 74%
    21:00 +25°C° 0 mm 3 mps 755 mmHg 78%
    22:00 +25°C° 0 mm 2 mps 756 mmHg 83%
    23:00 +24°C° 0 mm 2 mps 756 mmHg 87%
    Show more